This demonstration page uses our WeatherBlox Daily Observations layout. Learn more.

Left ArrowRight Arrow

36.19886, -115.1175

Hourly Observations for May 5, 2021

Temp ( °F °C ) Dew Point ( °F °C ) Humidity (%) Winds ( mph kmh ) Pressure ( in mb ) Visibility ( mi km ) Precip ( " mm )
12:53 am 00:53 Clear 74 23.3 17 -8.3 11 11 N 5 7 29.84 1011 10 16 N/A
1:53 am 01:53 Clear 70 21.1 21 -6.1 16 16 NW 6 9 29.84 1011 10 16 N/A
2:53 am 02:53 Clear 69 20.6 21 -6.1 16 16 N N/A 29.86 1011 10 16 N/A
3:53 am 03:53 Clear 69 20.6 23 -5 17 17 NNW 9 15 29.87 1012 10 16 N/A
4:53 am 04:53 Clear 67 19.4 22 -5.6 18 18 WNW 5 7 29.89 1012 10 16 N/A
5:53 am 05:53 Sunny 68 20 18 -7.8 15 15 NW 6 9 29.92 1013 10 16 N/A
6:53 am 06:53 Sunny 72 22.2 19 -7.2 13 13 NW 3 6 29.95 1014 10 16 N/A
7:53 am 07:53 Sunny 77 25 20 -6.7 12 12 NW 5 7 29.97 1015 10 16 N/A
8:53 am 08:53 Sunny 81 27.2 20 -6.7 10 10 N N/A 29.98 1015 10 16 N/A
9:43 am 09:43 Sunny 84 28.9 20 -6.7 9 9 E 14 22 29.87 1011 10 16 N/A
9:53 am 09:53 Sunny 84 28.9 20 -6.7 9 9 E 13 20 29.98 1015 10 16 N/A
10:53 am 10:53 Sunny 87 30.6 20 -6.7 8 8 E 9 15 29.98 1015 10 16 N/A
11:53 am 11:53 Sunny 90 32.2 20 -6.7 8 8 ENE 12 19 29.97 1015 10 16 N/A
12:53 pm 12:53 Sunny 91 32.8 19 -7.2 7 7 ENE 13 20 29.94 1014 10 16 N/A
1:53 pm 13:53 Sunny 92 33.3 19 -7.2 7 7 SE 8 13 29.93 1014 10 16 N/A
2:53 pm 14:53 Sunny 93 33.9 18 -7.8 6 6 E 8 13 29.91 1013 10 16 N/A
3:53 pm 15:53 Sunny 94 34.4 19 -7.2 6 6 VRB 3 6 29.88 1012 10 16 N/A
4:53 pm 16:53 Sunny 93 33.9 19 -7.2 7 7 VRB 5 7 29.87 1012 10 16 N/A
5:53 pm 17:53 Sunny 93 33.9 19 -7.2 7 7 ESE 3 6 29.85 1011 10 16 N/A
6:53 pm 18:53 Sunny 93 33.9 19 -7.2 7 7 N N/A 29.85 1011 10 16 N/A
7:53 pm 19:53 Clear 90 32.2 18 -7.8 7 7 N N/A 29.85 1011 10 16 N/A
8:53 pm 20:53 Clear 87 30.6 20 -6.7 8 8 N N/A 29.87 1011 10 16 N/A
9:53 pm 21:53 Clear 81 27.2 28 -2.2 14 14 NW 7 11 29.89 1012 10 16 N/A
10:53 pm 22:53 Clear 79 26.1 27 -2.8 15 15 NNW 5 7 29.90 1013 10 16 N/A
11:53 pm 23:53 Clear 77 25 25 -3.9 14 14 NNW 7 11 29.90 1013 10 16 N/A

Powered by AerisWeather